EB2EMZ-3 Weather Reports


time (UTC)temp
C
wind
direction
speed
KPH
gust
KPH
rain 1hr
cm
rain 24hr
cm
rain mn
cm
humidity
%
barometer
mb
20260510091914 20 247 0.0 3.2 0.00 1.32 0.00 72 1012.5
20260510091414 20 202 0.0 0.0 0.00 1.32 0.00 73 1012.5
20260510090914 20 202 0.0 6.4 0.00 1.32 0.00 73 1012.6
20260510090414 20 202 6.4 6.4 0.00 1.32 0.00 73 1012.4
20260510085914 20 225 0.0 0.0 0.00 1.32 0.00 74 1012.5
20260510085414 20 225 0.0 0.0 0.00 1.32 0.00 74 1012.4
20260510084914 20 225 0.0 3.2 0.00 1.32 0.00 74 1012.4
20260510084414 20 225 3.2 6.4 0.00 1.32 0.00 74 1012.6
20260510083914 20 225 0.0 0.0 0.00 1.32 0.00 74 1012.6
20260510083414 20 225 0.0 0.0 0.00 1.32 0.00 74 1012.7
20260510082914 20 225 0.0 0.0 0.00 1.32 0.00 75 1012.7
20260510082414 20 225 0.0 0.0 0.00 1.32 0.00 75 1012.6
20260510081914 20 202 0.0 1.6 0.00 1.32 0.00 75 1012.7
20260510081414 20 247 0.0 0.0 0.00 1.32 0.00 75 1012.7
20260510080914 19 225 0.0 4.8 0.00 1.32 0.00 76 1012.6
20260510080414 19 225 4.8 4.8 0.00 1.32 0.00 76 1012.6
20260510075914 19 202 0.0 1.6 0.00 1.32 0.00 78 1012.7
20260510075414 19 315 0.0 0.0 0.00 1.32 0.00 78 1012.7
20260510074914 19 202 0.0 0.0 0.00 1.32 0.00 78 1012.7
20260510074414 19 247 0.0 0.0 0.00 1.32 0.00 79 1012.7
20260510073914 18 247 0.0 0.0 0.00 1.32 0.00 80 1012.7
20260510073414 18 225 0.0 0.0 0.00 1.32 0.00 80 1012.6
20260510072914 18 225 0.0 0.0 0.00 1.32 0.00 81 1012.6
20260510072414 17 0 0.0 0.0 0.00 1.32 0.00 83 1012.5
20260510071914 17 0 0.0 0.0 0.00 1.32 0.00 83 1012.4
20260510071414 17 0 0.0 0.0 0.00 1.32 0.00 83 1012.3
20260510070914 17 0 0.0 0.0 0.00 1.32 0.00 84 1012.4
20260510070414 16 0 0.0 0.0 0.00 1.32 0.00 85 1012.3
20260510065914 16 0 0.0 0.0 0.00 1.32 0.00 86 1012.5
20260510065414 16 0 0.0 0.0 0.00 1.32 0.00 87 1012.4
20260510064914 15 0 0.0 0.0 0.00 1.32 0.00 88 1012.2
20260510064414 15 0 0.0 0.0 0.00 1.32 0.00 89 1012.1
20260510063914 15 0 0.0 0.0 0.00 1.32 0.00 90 1012.4
20260510063414 15 0 0.0 0.0 0.00 1.32 0.00 90 1012.2
20260510062914 15 0 0.0 0.0 0.00 1.32 0.00 90 1012.3
20260510062415 14 0 0.0 0.0 0.00 1.32 0.00 90 1012.3
20260510061914 13 0 0.0 0.0 0.00 1.32 0.00 90 1012.3
20260510061414 13 0 0.0 0.0 0.00 1.32 0.00 90 1012.1
20260510060914 13 0 0.0 0.0 0.00 1.32 0.00 90 1012.1
20260510060415 13 0 0.0 0.0 0.00 1.32 0.00 91 1012.3
20260510055914 13 0 0.0 0.0 0.00 1.32 0.00 91 1012.1
20260510055414 13 315 0.0 0.0 0.00 1.32 0.00 91 1012.2
20260510054914 13 315 0.0 0.0 0.00 1.32 0.00 91 1012.3
20260510054414 13 22 0.0 0.0 0.00 1.32 0.00 91 1012.2
20260510053915 13 0 0.0 0.0 0.00 1.32 0.00 91 1012.3
20260510053415 13 0 0.0 0.0 0.00 1.32 0.00 91 1012.2
20260510052914 13 0 0.0 0.0 0.00 1.32 0.00 91 1012.2
20260510052414 13 0 0.0 0.0 0.00 1.32 0.00 91 1012.2
20260510051915 13 0 0.0 0.0 0.00 1.32 0.00 91 1012.1
20260510051415 13 0 0.0 0.0 0.00 1.32 0.00 91 1012.1
20260510050915 13 0 0.0 0.0 0.00 1.32 0.00 91 1012.1
20260510050415 13 0 0.0 0.0 0.00 1.32 0.00 91 1012.1
20260510045915 13 0 0.0 0.0 0.00 1.32 0.00 91 1012.0
20260510045415 13 0 0.0 0.0 0.00 1.32 0.00 91 1011.9
20260510044915 13 0 0.0 0.0 0.00 1.32 0.00 91 1011.9
20260510044415 13 0 0.0 0.0 0.00 1.32 0.00 91 1012.0
20260510043915 13 0 0.0 0.0 0.00 1.32 0.00 91 1011.9
20260510043415 13 0 0.0 0.0 0.00 1.32 0.00 91 1011.9
20260510042915 13 0 0.0 0.0 0.00 1.32 0.00 91 1012.0
20260510042415 13 0 0.0 0.0 0.00 1.32 0.00 91 1012.0
20260510041915 13 0 0.0 0.0 0.00 1.32 0.00 91 1011.9
20260510041415 13 0 0.0 0.0 0.00 1.32 0.00 91 1011.9
20260510040915 13 0 0.0 0.0 0.00 1.32 0.00 91 1012.2
20260510040415 13 0 0.0 0.0 0.00 1.32 0.00 91 1012.2
20260510035915 13 0 0.0 0.0 0.00 1.32 0.00 91 1012.1
20260510035415 13 0 0.0 0.0 0.00 1.32 0.00 91 1012.0
20260510034915 13 0 0.0 0.0 0.00 1.32 0.00 91 1012.2
20260510034415 13 0 0.0 0.0 0.00 1.32 0.00 91 1012.1
20260510033915 13 0 0.0 0.0 0.00 1.32 0.00 91 1012.0
20260510033415 13 0 0.0 0.0 0.00 1.32 0.00 91 1012.1
20260510032915 13 0 0.0 0.0 0.00 1.32 0.00 91 1012.1
20260510032415 13 0 0.0 0.0 0.00 1.32 0.00 91 1012.3
20260510031915 13 0 0.0 0.0 0.00 1.32 0.00 91 1012.2
20260510031415 13 0 0.0 0.0 0.00 1.32 0.00 91 1012.0
20260510030915 13 0 0.0 0.0 0.00 1.32 0.00 91 1012.1
20260510030415 13 0 0.0 0.0 0.00 1.32 0.00 91 1012.1
20260510025915 13 0 0.0 0.0 0.00 1.32 0.00 91 1012.1
20260510025415 13 0 0.0 0.0 0.00 1.32 0.00 91 1012.1
20260510024915 13 0 0.0 0.0 0.00 1.32 0.00 91 1012.0
20260510024415 13 0 0.0 0.0 0.00 1.32 0.00 91 1012.1
20260510023915 12 0 0.0 0.0 0.00 1.32 0.00 91 1012.1
20260510023415 12 0 0.0 0.0 0.00 1.32 0.00 91 1012.3
20260510022915 12 0 0.0 0.0 0.00 1.32 0.00 91 1012.1
20260510022415 12 0 0.0 0.0 0.00 1.32 0.00 91 1012.1
20260510021915 12 0 0.0 0.0 0.00 1.32 0.00 91 1012.3
20260510021415 12 0 0.0 0.0 0.00 1.32 0.00 91 1012.2
20260510020915 12 0 0.0 0.0 0.00 1.32 0.00 91 1012.3
20260510015915 12 0 0.0 0.0 0.00 1.32 0.00 91 1012.4
20260510015415 12 0 0.0 0.0 0.00 1.32 0.00 91 1012.4
20260510014915 12 0 0.0 0.0 0.00 1.32 0.00 91 1012.4
20260510014415 12 0 0.0 0.0 0.00 1.32 0.00 91 1012.4
20260510013915 12 0 0.0 0.0 0.00 1.32 0.00 91 1012.3
20260510013415 12 0 0.0 0.0 0.00 1.32 0.00 91 1012.3
20260510012915 12 0 0.0 0.0 0.00 1.32 0.00 91 1012.3
20260510012415 12 0 0.0 0.0 0.00 1.32 0.00 91 1012.4
20260510011915 12 0 0.0 0.0 0.00 1.32 0.00 91 1012.4
20260510011415 12 0 0.0 0.0 0.00 1.32 0.00 91 1012.5
20260510010915 12 0 0.0 0.0 0.00 1.32 0.00 91 1012.6
20260510010415 12 0 0.0 0.0 0.00 1.32 0.00 91 1012.6
20260510005915 12 0 0.0 0.0 0.00 1.32 0.00 91 1012.6
20260510005415 12 0 0.0 0.0 0.00 1.32 0.00 91 1012.7
20260510004915 12 0 0.0 0.0 0.00 1.32 0.00 91 1012.6
20260510004415 12 0 0.0 0.0 0.00 1.32 0.00 91 1012.6
20260510003915 13 0 0.0 0.0 0.00 1.32 0.00 91 1012.7
20260510003415 13 0 0.0 0.0 0.00 1.32 0.00 91 1012.8
20260510002915 13 0 0.0 0.0 0.00 1.32 0.00 91 1012.8
20260510002415 13 0 0.0 0.0 0.00 1.32 0.00 91 1012.8
20260510001915 13 0 0.0 0.0 0.00 1.32 0.00 91 1012.7
20260510001415 13 0 0.0 0.0 0.00 1.32 0.00 91 1012.7
20260510000915 13 0 0.0 0.0 0.00 1.32 0.00 91 1012.7
20260510000418 13 0 0.0 0.0 0.00 1.32 0.00 91 1012.6
20260509235916 13 0 0.0 0.0 0.00 1.32 0.00 91 1012.5
20260509235416 13 0 0.0 0.0 0.00 1.32 0.00 91 1012.5